Location: Lane
(33.5226°N, 79.8788°W)
Time: 06:08:16
(UTC+00:00)

Vanguard 2 - Pass Details

Date: 04 October 2022
Orbit: 553 x 2933 km, 32.9° (Epoch: 26 November)

Event Time Altitude Azimuth Distance (km) Brightness Sun altitude
Rises 15:01:26 0° 197° (SSW) 3,683 11.3 41.6°
Reaches altitude 10° 15:04:25 10° 180° (S) 3,045 11.3 42.0°
Maximum altitude 15:10:02 21° 133° (SE) 2,840 12.0 42.8°
Drops below altitude 10° 15:17:46 10° 90° (E) 4,390 12.0 43.9°
Sets 15:23:15 0° 78° (ENE) 5,852 12.3 44.6°
